This is the latest recevied weather packets stored in our database for station/object KD2ZLA. If no packets are shown the sender has not sent any weather packets the latest 10 day(s).
| Time | Temp. | Humidity | Pressure | Rain* | Wind** | Luminosity | Snow |
|---|---|---|---|---|---|---|---|
| 1777912005 | 17.22° C | 47% | 1004.6 hPa | 0 mm | - | 857 W/m² | - |
| 1777911701 | 16.67° C | 49% | 1004.7 hPa | 0 mm | - | 864 W/m² | - |
| 1777911398 | 16.67° C | 49% | 1004.6 hPa | 0 mm | - | 862 W/m² | - |
| 1777911096 | 16.67° C | 49% | 1004.8 hPa | 0 mm | - | 861 W/m² | - |
| 1777910793 | 16.11° C | 50% | 1004.6 hPa | 0 mm | - | 845 W/m² | - |
| 1777910489 | 15.56° C | 50% | 1004.7 hPa | 0 mm | - | 846 W/m² | - |
| 1777910186 | 15.56° C | 52% | 1004.9 hPa | 0 mm | - | 730 W/m² | - |
| 1777909884 | 15° C | 53% | 1004.8 hPa | 0 mm | - | 391 W/m² | - |
| 1777909580 | 15° C | 52% | 1005 hPa | 0 mm | - | 373 W/m² | - |
| 1777909278 | 15.56° C | 52% | 1004.9 hPa | 0 mm | - | 1025 W/m² | - |
| 1777908976 | 15.56° C | 55% | 1004.9 hPa | 0 mm | - | 913 W/m² | - |
| 1777908674 | 15.56° C | 54% | 1005 hPa | 0 mm | - | 806 W/m² | - |
| 1777908370 | 15° C | 54% | 1004.8 hPa | 0 mm | - | 764 W/m² | - |
| 1777908066 | 15° C | 58% | 1005.1 hPa | 0 mm | - | 799 W/m² | - |
| 1777907762 | 15° C | 56% | 1005.3 hPa | 0 mm | - | 757 W/m² | - |
| 1777907457 | 14.44° C | 56% | 1005.2 hPa | 0 mm | - | 770 W/m² | - |
| 1777907154 | 13.89° C | 58% | 1005.2 hPa | 0 mm | - | 719 W/m² | - |
| 1777906852 | 14.44° C | 58% | 1005.2 hPa | 0 mm | - | 701 W/m² | - |
| 1777906549 | 13.89° C | 60% | 1005.2 hPa | 0 mm | - | 715 W/m² | - |
| 1777906244 | 13.89° C | 58% | 1005.4 hPa | 0 mm | - | 712 W/m² | - |
| 1777905941 | 13.89° C | 62% | 1005.3 hPa | 0 mm | - | 691 W/m² | - |
| 1777905638 | 13.33° C | 60% | 1005.2 hPa | 0 mm | - | 724 W/m² | - |
| 1777905335 | 12.78° C | 61% | 1005.4 hPa | 0 mm | - | 474 W/m² | - |
| 1777905033 | 12.78° C | 61% | 1005.3 hPa | 0 mm | - | 376 W/m² | - |
| 1777904730 | 12.78° C | 63% | 1005.3 hPa | 0 mm | - | 617 W/m² | - |
* Rain latest hour (hover to see other rain measurements)
** Current wind speed in m/s (hover to see current wind gust speed)